Al Ahsa, Saudi Arabia

2:02 AM AST on February 21, 2017 (GMT +0300)
Al Ahsa

Weather History for OEAH - November, 2012

Change the Weather History Date:

Wednesday, November 7, 2012

  Actual Average Record
Temperature  
Mean Temperature 80 °F -  
Max Temperature 95 °F 79 °F 98 °F (1999)
Min Temperature 66 °F 57 °F 57 °F (1996)
Cooling Degree Days 16    
Growing Degree Days 30 (Base 50)    
Moisture  
Dew Point 40 °F    
Average Humidity 23    
Maximum Humidity 35    
Minimum Humidity 7    
Precipitation  
Precipitation 0.00 in - - ()
Sea Level Pressure  
Sea Level Pressure 29.98 in    
Wind  
Wind Speed 4 mph ()    
Max Wind Speed 12 mph    
Max Gust Speed -    
Visibility 6.0 miles    
Events      
Averages and records for this station are not official NWS values.
T = Trace of Precipitation, MM = Missing Value Source: Averaged Metar Reports

Daily Weather History Graph

Daily Weather History Graph

Search for Another Location

Airport or City:

Trip Planner

Search our weather history database for the weather conditions in past years. The results will help you decide how hot, cold, wet, or windy it might be!

Date:

Astronomy

Nov. 07, 2012 Rise Set
Actual Time 5:53 AM AST 4:57 PM AST
Civil Twilight 5:29 AM AST 5:21 PM AST
Nautical Twilight 5:02 AM AST 5:48 PM AST
Astronomical Twilight 4:35 AM AST 6:15 PM AST
Moon No Moon Rise 12:14 PM AST (11/7)
Length of Visible Light 11h 51m
Length of Day
11h 03m
Waning Gibbous, 46% of the Moon is Illuminated
Nov 7
Waning Gibbous
Nov 14
New
Nov 20
First Quarter
Nov 28
Full
Dec 6
Last Quarter

Hourly Weather History & Observations

Time (AST) Temp. Dew Point Humidity Pressure Visibility Wind Dir Wind Speed Gust Speed Precip Events Conditions
12:00 AM 72 °F 39 °F 20% 29.96 in 6 mi Calm Calm - -  
12:00 AM 71.6 °F 39.2 °F 31% 29.98 in - Calm Calm - N/A   Clear
1:00 AM 71.6 °F 39.2 °F 31% 29.98 in - WSW 4.6 mph - N/A   Clear
2:00 AM 69.8 °F 41.0 °F 35% 29.98 in - Calm Calm - N/A   Clear
3:00 AM 70 °F 39 °F 21% 29.94 in 6 mi Calm Calm - -  
3:00 AM 69.8 °F 39.2 °F 33% 29.95 in - Calm Calm - N/A   Clear
4:00 AM 69.8 °F 39.2 °F 33% 29.95 in - ENE 2.3 mph - N/A   Clear
5:00 AM 69.8 °F 39.2 °F 33% 29.98 in - West 5.8 mph - N/A   Clear
6:00 AM 68 °F 37 °F 21% 29.98 in 6 mi West 9.2 mph - -   Scattered Clouds
6:00 AM 68.0 °F 37.4 °F 33% 29.98 in - West 9.2 mph - N/A   Clear
7:00 AM 71.6 °F 41.0 °F 33% 30.01 in - Calm Calm - N/A   Clear
8:00 AM 77.0 °F 42.8 °F 29% 30.01 in - North 2.3 mph - N/A   Clear
9:00 AM 83 °F 41 °F 13% 30.02 in 6 mi WNW 9.2 mph - -   Clear
9:00 AM 82.4 °F 41.0 °F 23% 30.04 in - WNW 9.2 mph - N/A   Clear
10:00 AM 86.0 °F 42.8 °F 22% 30.04 in - NW 8.1 mph - N/A   Clear
11:00 AM 89.6 °F 41.0 °F 18% 30.01 in - NW 10.4 mph - N/A   Clear
12:00 PM 91 °F 39 °F 9% 29.97 in 6 mi NNW 6.9 mph - -   Partly Cloudy
12:00 PM 91.4 °F 39.2 °F 16% 29.98 in - NNW 6.9 mph - N/A   Clear
1:00 PM 95.0 °F 37.4 °F 13% 29.95 in - NNW 8.1 mph - N/A   Clear
3:00 PM 93 °F 36 °F 7% 29.92 in 6 mi NNW 11.5 mph - -   Partly Cloudy
3:00 PM 93.2 °F 35.6 °F 13% 29.95 in - NNW 11.5 mph - N/A   Clear
4:00 PM 93.2 °F 35.6 °F 13% 29.95 in - NNW 9.2 mph - N/A   Clear
5:00 PM 87.8 °F 37.4 °F 17% 29.95 in - North 5.8 mph - N/A   Clear
6:00 PM 82 °F 46 °F 19% 29.95 in 6 mi NNW 5.8 mph - -   Scattered Clouds
6:00 PM 82.4 °F 46.4 °F 28% 29.98 in - NNW 5.8 mph - N/A   Clear
7:00 PM 78.8 °F 42.8 °F 28% 29.98 in - NNW 6.9 mph - N/A   Clear
8:00 PM 77.0 °F 39.2 °F 26% 29.98 in - NNW 8.1 mph - N/A   Clear
9:00 PM 75 °F 37 °F 16% 29.96 in 6 mi NW 5.8 mph - -  
9:00 PM 75.2 °F 37.4 °F 25% 29.98 in - NW 5.8 mph - N/A   Clear
10:00 PM 73.4 °F 39.2 °F 29% 29.98 in - NNW 4.6 mph - N/A   Clear
11:00 PM 73.4 °F 41.0 °F 31% 29.98 in - NNW 4.6 mph - N/A   Clear